Location: Unspecified
(0.0000°N, 0.0000°E)
Time: 12:13:38
(UTC+02:00)

GP-B - Visible Passes

Search period start: 25 October 2014 00:00
Search period end: 03 November 2014 23:00
Orbit: 635 x 638 km, 89.9° (Epoch: 24 October)

Date Brightness Start Highest point End Pass type
(mag) Time Alt. Az. Time Alt. Az. Time Alt. Az.
25 Oct 3.0 20:49:02 10° N 20:53:28 82° E 20:57:55 10° S visible
26 Oct 4.4 20:11:56 10° NNW 20:16:04 40° W 20:20:14 10° SSW visible
27 Oct 5.9 20:35:48 10° NW 20:38:40 17° W 20:41:33 10° SW visible
28 Oct 3.4 19:19:57 10° NNE 19:24:11 45° E 19:28:26 10° SSE visible
29 Oct 3.3 19:42:22 10° N 19:46:46 73° W 19:51:13 10° S visible
30 Oct 5.1 20:05:31 10° NNW 20:09:22 29° W 20:13:14 10° SSW visible
31 Oct 6.2 20:30:04 10° WNW 20:31:58 13° W 20:33:51 10° WSW visible
01 Nov 3.1 19:13:05 10° NNE 19:17:28 62° E 19:21:52 10° S visible
02 Nov 4.0 19:35:44 10° N 19:40:03 53° W 19:44:23 10° SSW visible
03 Nov 5.7 19:59:13 10° NW 20:02:38 22° W 20:06:05 10° SW visible
